Погода в Ортолыке

Россия / Республика Алтай     50°02′02″N   88°30′06″E
темп.,
°C
ветер,
м/с
пор.,
м/с
влажн.,
%
обл.,
%
осадки,
мм/ч
давл.,
гПа
погр.,
м
14 мая, пт
пт1401:00+1ссв217497 0.0 101630
04:000ссв11765 0.0 101612
07:00+1всв117298 0.0 1016135
10:00+4в1157100 0.0 1014620
13:00+7с224466 0.0 10131558
16:00+9с434194 0.0 10131606
19:00+8ссв344432 0.1 10141126
22:00+4ссз457392 0.4 1019277
15 мая, сб
сб1501:00+3сз4483100 2.1 1021335
04:00+2ссз347968 0.0 1023448
07:00+3сз116979 0.0 1024611
10:00+5зсз115859 0.0 10241062
13:00+8ссз22448 0.0 10221320
16:00+10ссз33399 0.0 10201511
19:00+10ссз33436 0.0 10201219
22:00+7ссз23565 0.0 102262
16 мая, вс
вс1601:00+6с21605 0.0 102213
04:00+5св22630 0.0 102113
07:00+6ссв11580 0.0 102192
10:00+10ююв01461 0.0 1020805
13:00+13с12281 0.0 10171576
16:00+15ссз34224 0.0 10142623
19:00+13с763514 0.0 10151301
22:00+10ссз34525 0.0 1017143
17 мая, пн
пн1701:00+9ссз22540 0.0 101622
04:00+7сз22600 0.0 101717
07:00+8сз12542 0.0 1017129
10:00+12зсз23405 0.0 10151525
13:00+15сз463196 0.0 10132546
16:00+16ссз573255 0.1 10122336
19:00+13сз674444 0.3 10131264
22:00+11сз465820 0.0 1015192
18 мая, вт
вт1801:00+8сз356538 0.1 1016102
04:00+7сз357191 0.0 1016134
07:00+8сз23645 0.0 1015206
10:00+12зсз24446 0.0 10121469
13:00+16сз463168 0.0 10092451
16:00+17ссз99248 0.0 10062567
19:00+14ссз57415 0.1 10061149
22:00+11з225079 0.0 100620